Time,TemperatureF,DewpointF,PressureIn,WindDirection,WindDirectionDegrees,WindSpeedMPH,WindSpeedGustMPH,Humidity,HourlyPrecipIn,Conditions,Clouds,dailyrainin,SoftwareType,DateUTC
2013-07-09 00:00:00,76.5,71.7,30.15,South,175,0.0,0.0,85,0.00,,,0.00,Wunderground v.1.15,2013-07-09 04:00:00,
2013-07-09 00:05:00,76.5,71.7,30.15,South,175,0.0,0.0,85,0.00,,,0.00,Wunderground v.1.15,2013-07-09 04:05:00,
2013-07-09 00:15:00,76.5,71.7,30.16,South,175,0.0,0.0,85,0.00,,,0.00,Wunderground v.1.15,2013-07-09 04:15:00,
2013-07-09 00:20:00,76.4,71.6,30.15,South,175,0.0,0.0,85,0.00,,,0.00,Wunderground v.1.15,2013-07-09 04:20:00,
2013-07-09 00:25:00,76.4,71.6,30.15,South,175,0.0,1.0,85,0.00,,,0.00,Wunderground v.1.15,2013-07-09 04:25:00,
2013-07-09 00:35:00,76.4,71.6,30.15,South,175,0.0,1.0,85,0.00,,,0.00,Wunderground v.1.15,2013-07-09 04:35:00,
2013-07-09 00:45:00,76.2,71.7,30.15,South,175,0.0,0.0,86,0.00,,,0.00,Wunderground v.1.15,2013-07-09 04:45:00,
2013-07-09 00:55:00,76.1,71.6,30.14,South,175,0.0,0.0,86,0.00,,,0.00,Wunderground v.1.15,2013-07-09 04:55:00,
2013-07-09 01:00:00,76.0,71.5,30.14,South,175,0.0,0.0,86,0.00,,,0.00,Wunderground v.1.15,2013-07-09 05:00:00,
2013-07-09 01:10:00,75.8,71.7,30.14,South,175,0.0,0.0,87,0.00,,,0.00,Wunderground v.1.15,2013-07-09 05:10:00,
2013-07-09 01:15:00,75.7,71.6,30.14,South,175,0.0,0.0,87,0.00,,,0.00,Wunderground v.1.15,2013-07-09 05:15:00,
2013-07-09 01:20:00,75.7,71.6,30.14,South,175,0.0,0.0,87,0.00,,,0.00,Wunderground v.1.15,2013-07-09 05:20:00,
2013-07-09 01:30:00,75.5,71.4,30.14,South,175,0.0,0.0,87,0.00,,,0.00,Wunderground v.1.15,2013-07-09 05:30:00,
2013-07-09 01:40:00,75.4,71.3,30.14,South,175,0.0,0.0,87,0.00,,,0.00,Wunderground v.1.15,2013-07-09 05:40:00,
2013-07-09 01:50:00,75.2,71.1,30.14,South,175,0.0,0.0,87,0.00,,,0.00,Wunderground v.1.15,2013-07-09 05:50:00,
2013-07-09 02:00:00,75.1,71.3,30.14,South,175,0.0,0.0,88,0.00,,,0.00,Wunderground v.1.15,2013-07-09 06:00:00,
2013-07-09 02:05:00,75.0,71.2,30.14,South,175,0.0,0.0,88,0.00,,,0.00,Wunderground v.1.15,2013-07-09 06:05:00,
2013-07-09 02:15:00,74.9,71.1,30.14,South,175,0.0,0.0,88,0.00,,,0.00,Wunderground v.1.15,2013-07-09 06:15:00,
2013-07-09 02:25:00,74.8,71.0,30.14,South,175,0.0,0.0,88,0.00,,,0.00,Wunderground v.1.15,2013-07-09 06:25:00,
2013-07-09 02:35:00,74.6,71.1,30.14,South,175,0.0,0.0,89,0.00,,,0.00,Wunderground v.1.15,2013-07-09 06:35:00,
2013-07-09 02:45:00,74.4,70.9,30.14,South,175,0.0,0.0,89,0.00,,,0.00,Wunderground v.1.15,2013-07-09 06:45:00,
2013-07-09 02:50:00,74.3,71.2,30.14,South,175,0.0,0.0,90,0.00,,,0.00,Wunderground v.1.15,2013-07-09 06:50:00,
2013-07-09 03:00:00,74.0,70.9,30.13,South,175,0.0,0.0,90,0.00,,,0.00,Wunderground v.1.15,2013-07-09 07:00:00,
2013-07-09 03:05:00,73.9,70.8,30.13,South,175,0.0,0.0,90,0.00,,,0.00,Wunderground v.1.15,2013-07-09 07:05:00,
2013-07-09 03:15:00,73.7,70.6,30.13,South,175,0.0,0.0,90,0.00,,,0.00,Wunderground v.1.15,2013-07-09 07:15:00,
2013-07-09 03:20:00,73.6,70.8,30.12,South,175,0.0,0.0,91,0.00,,,0.00,Wunderground v.1.15,2013-07-09 07:20:00,
2013-07-09 03:30:00,73.6,70.8,30.13,South,175,0.0,0.0,91,0.00,,,0.00,Wunderground v.1.15,2013-07-09 07:30:00,
2013-07-09 03:35:00,73.5,70.7,30.13,South,175,0.0,0.0,91,0.00,,,0.00,Wunderground v.1.15,2013-07-09 07:35:00,
2013-07-09 03:45:00,73.4,70.6,30.12,South,175,0.0,0.0,91,0.00,,,0.00,Wunderground v.1.15,2013-07-09 07:45:00,
2013-07-09 03:55:00,73.4,70.6,30.12,South,175,0.0,0.0,91,0.00,,,0.00,Wunderground v.1.15,2013-07-09 07:55:00,
2013-07-09 04:00:00,73.3,70.5,30.12,South,175,0.0,0.0,91,0.00,,,0.00,Wunderground v.1.15,2013-07-09 08:00:00,
2013-07-09 04:10:00,73.3,70.8,30.12,South,175,0.0,0.0,92,0.00,,,0.00,Wunderground v.1.15,2013-07-09 08:10:00,
2013-07-09 04:15:00,73.2,70.7,30.12,South,175,0.0,0.0,92,0.00,,,0.00,Wunderground v.1.15,2013-07-09 08:15:00,
2013-07-09 04:25:00,73.2,70.7,30.12,South,175,0.0,0.0,92,0.00,,,0.00,Wunderground v.1.15,2013-07-09 08:25:00,
2013-07-09 04:35:00,73.1,70.6,30.12,South,175,0.0,0.0,92,0.00,,,0.00,Wunderground v.1.15,2013-07-09 08:35:00,
2013-07-09 04:45:00,73.1,70.6,30.12,South,175,0.0,0.0,92,0.00,,,0.00,Wunderground v.1.15,2013-07-09 08:45:00,
2013-07-09 04:55:00,73.1,70.6,30.12,South,175,0.0,0.0,92,0.00,,,0.00,Wunderground v.1.15,2013-07-09 08:55:00,
2013-07-09 05:00:00,73.0,70.5,30.12,South,175,0.0,0.0,92,0.00,,,0.00,Wunderground v.1.15,2013-07-09 09:00:00,
2013-07-09 05:10:00,73.0,70.9,30.11,South,175,0.0,0.0,93,0.00,,,0.00,Wunderground v.1.15,2013-07-09 09:10:00,
2013-07-09 05:20:00,73.0,70.9,30.12,South,175,0.0,0.0,93,0.00,,,0.00,Wunderground v.1.15,2013-07-09 09:20:00,
2013-07-09 05:30:00,73.2,71.1,30.13,South,175,0.0,0.0,93,0.00,,,0.00,Wunderground v.1.15,2013-07-09 09:30:00,
2013-07-09 05:40:00,73.2,71.1,30.13,South,175,0.0,0.0,93,0.00,,,0.00,Wunderground v.1.15,2013-07-09 09:40:00,
2013-07-09 05:45:00,73.3,71.2,30.13,South,175,0.0,0.0,93,0.00,,,0.00,Wunderground v.1.15,2013-07-09 09:45:00,
2013-07-09 05:55:00,73.2,71.1,30.13,South,176,0.0,0.0,93,0.00,,,0.00,Wunderground v.1.15,2013-07-09 09:55:00,
2013-07-09 06:00:00,73.1,71.0,30.13,NNW,340,0.0,0.0,93,0.00,,,0.00,Wunderground v.1.15,2013-07-09 10:00:00,
2013-07-09 06:10:00,73.0,70.9,30.13,NNW,340,0.0,0.0,93,0.00,,,0.00,Wunderground v.1.15,2013-07-09 10:10:00,
2013-07-09 06:15:00,72.9,70.8,30.13,NNW,348,0.0,0.0,93,0.00,,,0.00,Wunderground v.1.15,2013-07-09 10:15:00,
2013-07-09 06:25:00,72.8,71.0,30.13,NW,311,0.0,0.0,94,0.00,,,0.00,Wunderground v.1.15,2013-07-09 10:25:00,
2013-07-09 06:35:00,72.7,70.6,30.13,NW,311,0.0,0.0,93,0.00,,,0.00,Wunderground v.1.15,2013-07-09 10:35:00,
2013-07-09 06:40:00,72.6,70.5,30.13,NW,311,0.0,0.0,93,0.00,,,0.00,Wunderground v.1.15,2013-07-09 10:40:00,
2013-07-09 06:50:00,72.6,70.8,30.13,NW,311,0.0,0.0,94,0.00,,,0.00,Wunderground v.1.15,2013-07-09 10:50:00,
2013-07-09 07:00:00,72.8,71.0,30.14,NW,311,0.0,0.0,94,0.00,,,0.00,Wunderground v.1.15,2013-07-09 11:00:00,
2013-07-09 07:10:00,73.1,71.3,30.13,NW,311,0.0,0.0,94,0.00,,,0.00,Wunderground v.1.15,2013-07-09 11:10:00,
2013-07-09 07:20:00,73.5,71.7,30.14,NW,311,0.0,0.0,94,0.00,,,0.00,Wunderground v.1.15,2013-07-09 11:20:00,
2013-07-09 07:25:00,73.7,71.9,30.14,NW,311,0.0,1.0,94,0.00,,,0.00,Wunderground v.1.15,2013-07-09 11:25:00,
2013-07-09 07:35:00,74.4,72.2,30.14,South,177,1.0,1.0,93,0.00,,,0.00,Wunderground v.1.15,2013-07-09 11:35:00,
2013-07-09 07:40:00,74.8,72.3,30.14,South,169,1.0,1.0,92,0.00,,,0.00,Wunderground v.1.15,2013-07-09 11:40:00,
2013-07-09 07:50:00,75.6,72.8,30.14,South,169,1.0,1.0,91,0.00,,,0.00,Wunderground v.1.15,2013-07-09 11:50:00,
2013-07-09 07:55:00,76.1,73.0,30.14,South,169,0.0,1.0,90,0.00,,,0.00,Wunderground v.1.15,2013-07-09 11:55:00,
2013-07-09 08:05:00,76.8,73.0,30.14,South,169,0.0,2.0,88,0.00,,,0.00,Wunderground v.1.15,2013-07-09 12:05:00,
2013-07-09 08:10:00,77.5,73.3,30.14,ESE,114,1.0,2.0,87,0.00,,,0.00,Wunderground v.1.15,2013-07-09 12:10:00,
2013-07-09 08:20:00,78.0,73.5,30.15,West,281,1.0,1.0,86,0.00,,,0.00,Wunderground v.1.15,2013-07-09 12:20:00,
2013-07-09 08:30:00,78.2,73.7,30.15,WNW,288,0.0,0.0,86,0.00,,,0.00,Wunderground v.1.15,2013-07-09 12:30:00,
2013-07-09 08:40:00,78.4,73.5,30.14,WNW,288,0.0,1.0,85,0.00,,,0.00,Wunderground v.1.15,2013-07-09 12:40:00,
2013-07-09 08:50:00,78.9,74.0,30.15,WNW,288,1.0,1.0,85,0.00,,,0.00,Wunderground v.1.15,2013-07-09 12:50:00,
2013-07-09 09:00:00,79.6,74.0,30.15,SW,234,1.0,3.0,83,0.00,,,0.00,Wunderground v.1.15,2013-07-09 13:00:00,
2013-07-09 09:05:00,80.0,74.4,30.15,SSW,205,1.0,3.0,83,0.00,,,0.00,Wunderground v.1.15,2013-07-09 13:05:00,
2013-07-09 09:15:00,81.0,74.6,30.15,South,186,1.0,1.0,81,0.00,,,0.00,Wunderground v.1.15,2013-07-09 13:15:00,
2013-07-09 09:25:00,81.6,74.8,30.15,South,180,1.0,1.0,80,0.00,,,0.00,Wunderground v.1.15,2013-07-09 13:25:00,
2013-07-09 09:35:00,82.5,75.3,30.16,South,189,1.0,2.0,79,0.00,,,0.00,Wunderground v.1.15,2013-07-09 13:35:00,
2013-07-09 09:45:00,83.2,74.8,30.15,SSE,154,2.0,5.0,76,0.00,,,0.00,Wunderground v.1.15,2013-07-09 13:45:00,
2013-07-09 09:55:00,83.3,74.9,30.15,SW,229,2.0,3.0,76,0.00,,,0.00,Wunderground v.1.15,2013-07-09 13:55:00,
2013-07-09 10:05:00,83.8,74.6,30.15,West,270,2.0,3.0,74,0.00,,,0.00,Wunderground v.1.15,2013-07-09 14:05:00,
2013-07-09 10:10:00,83.7,74.5,30.15,SE,127,2.0,3.0,74,0.00,,,0.00,Wunderground v.1.15,2013-07-09 14:10:00,
2013-07-09 10:20:00,83.9,74.3,30.15,SSE,152,2.0,2.0,73,0.00,,,0.00,Wunderground v.1.15,2013-07-09 14:20:00,
2013-07-09 10:30:00,84.1,74.1,30.16,WSW,257,2.0,2.0,72,0.00,,,0.00,Wunderground v.1.15,2013-07-09 14:30:00,
2013-07-09 10:40:00,84.0,73.6,30.16,NW,317,1.0,1.0,71,0.00,,,0.00,Wunderground v.1.15,2013-07-09 14:40:00,
2013-07-09 10:50:00,83.9,73.9,30.15,West,266,1.0,1.0,72,0.00,,,0.00,Wunderground v.1.15,2013-07-09 14:50:00,
2013-07-09 10:55:00,84.1,74.1,30.15,WSW,252,1.0,1.0,72,0.00,,,0.00,Wunderground v.1.15,2013-07-09 14:55:00,
2013-07-09 11:05:00,84.6,74.2,30.16,SSE,161,1.0,3.0,71,0.00,,,0.00,Wunderground v.1.15,2013-07-09 15:05:00,
2013-07-09 11:10:00,84.7,74.3,30.15,South,190,2.0,2.0,71,0.00,,,0.00,Wunderground v.1.15,2013-07-09 15:10:00,
2013-07-09 11:20:00,84.7,74.7,30.15,South,175,2.0,2.0,72,0.00,,,0.00,Wunderground v.1.15,2013-07-09 15:20:00,
2013-07-09 11:25:00,84.7,74.7,30.15,SE,146,2.0,4.0,72,0.00,,,0.00,Wunderground v.1.15,2013-07-09 15:25:00,
2013-07-09 11:35:00,85.0,75.4,30.15,SSE,155,2.0,2.0,73,0.00,,,0.00,Wunderground v.1.15,2013-07-09 15:35:00,
2013-07-09 11:40:00,85.2,75.1,30.15,SSE,154,2.0,2.0,72,0.00,,,0.00,Wunderground v.1.15,2013-07-09 15:40:00,
2013-07-09 11:50:00,85.6,75.1,30.15,SSW,200,3.0,3.0,71,0.00,,,0.00,Wunderground v.1.15,2013-07-09 15:50:00,
2013-07-09 11:55:00,85.8,74.9,30.15,South,177,3.0,3.0,70,0.00,,,0.00,Wunderground v.1.15,2013-07-09 15:55:00,
2013-07-09 12:00:00,85.9,74.5,30.15,ESE,113,3.0,5.0,69,0.00,,,0.00,Wunderground v.1.15,2013-07-09 16:00:00,
2013-07-09 12:10:00,85.7,74.4,30.15,SSE,151,3.0,3.0,69,0.00,,,0.00,Wunderground v.1.15,2013-07-09 16:10:00,
2013-07-09 12:20:00,85.9,75.0,30.15,SSE,149,3.0,3.0,70,0.00,,,0.00,Wunderground v.1.15,2013-07-09 16:20:00,
2013-07-09 12:25:00,86.1,75.2,30.15,SE,136,3.0,3.0,70,0.00,,,0.00,Wunderground v.1.15,2013-07-09 16:25:00,
2013-07-09 12:35:00,86.6,75.2,30.15,ESE,108,3.0,7.0,69,0.00,,,0.00,Wunderground v.1.15,2013-07-09 16:35:00,
2013-07-09 12:40:00,86.4,74.1,30.15,SSE,150,3.0,3.0,67,0.00,,,0.00,Wunderground v.1.15,2013-07-09 16:40:00,
2013-07-09 12:50:00,86.6,75.2,30.14,SE,126,2.0,6.0,69,0.00,,,0.00,Wunderground v.1.15,2013-07-09 16:50:00,
2013-07-09 12:55:00,86.2,74.8,30.14,ESE,111,3.0,6.0,69,0.00,,,0.00,Wunderground v.1.15,2013-07-09 16:55:00,
2013-07-09 13:05:00,85.9,74.5,30.14,South,171,3.0,6.0,69,0.00,,,0.00,Wunderground v.1.15,2013-07-09 17:05:00,
2013-07-09 13:10:00,86.1,75.2,30.14,SE,138,3.0,4.0,70,0.00,,,0.00,Wunderground v.1.15,2013-07-09 17:10:00,
2013-07-09 13:20:00,86.6,76.1,30.13,SW,232,3.0,3.0,71,0.00,,,0.00,Wunderground v.1.15,2013-07-09 17:20:00,
2013-07-09 13:25:00,86.7,75.7,30.13,SSE,155,3.0,4.0,70,0.00,,,0.00,Wunderground v.1.15,2013-07-09 17:25:00,
2013-07-09 13:35:00,86.6,74.8,30.13,South,188,3.0,5.0,68,0.00,,,0.00,Wunderground v.1.15,2013-07-09 17:35:00,
2013-07-09 13:45:00,86.6,74.3,30.13,SSE,153,3.0,3.0,67,0.00,,,0.00,Wunderground v.1.15,2013-07-09 17:45:00,
2013-07-09 13:50:00,86.7,75.3,30.12,South,180,3.0,3.0,69,0.00,,,0.00,Wunderground v.1.15,2013-07-09 17:50:00,
2013-07-09 14:00:00,86.4,74.6,30.12,SSE,150,3.0,3.0,68,0.00,,,0.00,Wunderground v.1.15,2013-07-09 18:00:00,
2013-07-09 14:10:00,86.6,75.2,30.11,SE,137,3.0,3.0,69,0.00,,,0.00,Wunderground v.1.15,2013-07-09 18:10:00,
2013-07-09 14:20:00,86.8,73.2,30.11,ESE,109,4.0,4.0,64,0.00,,,0.00,Wunderground v.1.15,2013-07-09 18:20:00,
2013-07-09 14:25:00,86.8,74.1,30.11,South,180,4.0,4.0,66,0.00,,,0.00,Wunderground v.1.15,2013-07-09 18:25:00,
2013-07-09 14:35:00,86.8,75.0,30.11,NE,44,3.0,5.0,68,0.00,,,0.00,Wunderground v.1.15,2013-07-09 18:35:00,
2013-07-09 14:45:00,85.8,74.9,30.10,ESE,119,3.0,4.0,70,0.00,,,0.00,Wunderground v.1.15,2013-07-09 18:45:00,
2013-07-09 14:55:00,86.0,74.6,30.10,SSE,157,2.0,4.0,69,0.00,,,0.00,Wunderground v.1.15,2013-07-09 18:55:00,
2013-07-09 15:05:00,86.0,75.1,30.10,ESE,119,4.0,4.0,70,0.00,,,0.00,Wunderground v.1.15,2013-07-09 19:05:00,
2013-07-09 15:10:00,85.9,74.5,30.10,SSW,193,4.0,6.0,69,0.00,,,0.00,Wunderground v.1.15,2013-07-09 19:10:00,
2013-07-09 15:20:00,85.6,74.3,30.10,SE,142,4.0,4.0,69,0.00,,,0.00,Wunderground v.1.15,2013-07-09 19:20:00,
2013-07-09 15:30:00,86.6,74.8,30.09,ESE,119,3.0,4.0,68,0.00,,,0.00,Wunderground v.1.15,2013-07-09 19:30:00,
2013-07-09 15:35:00,86.6,74.8,30.09,SE,143,3.0,6.0,68,0.00,,,0.00,Wunderground v.1.15,2013-07-09 19:35:00,
2013-07-09 15:45:00,86.6,74.8,30.08,ESE,106,4.0,5.0,68,0.00,,,0.00,Wunderground v.1.15,2013-07-09 19:45:00,
2013-07-09 15:50:00,86.7,74.4,30.08,ESE,121,4.0,4.0,67,0.00,,,0.00,Wunderground v.1.15,2013-07-09 19:50:00,
2013-07-09 16:00:00,86.3,74.5,30.08,ESE,105,4.0,4.0,68,0.00,,,0.00,Wunderground v.1.15,2013-07-09 20:00:00,
2013-07-09 16:05:00,86.2,74.4,30.08,East,86,4.0,5.0,68,0.00,,,0.00,Wunderground v.1.15,2013-07-09 20:05:00,
2013-07-09 16:15:00,86.4,74.6,30.08,SE,139,3.0,4.0,68,0.00,,,0.00,Wunderground v.1.15,2013-07-09 20:15:00,
2013-07-09 16:20:00,86.3,73.6,30.08,South,190,3.0,3.0,66,0.00,,,0.00,Wunderground v.1.15,2013-07-09 20:20:00,
2013-07-09 16:30:00,85.5,72.8,30.07,SE,130,3.0,3.0,66,0.00,,,0.00,Wunderground v.1.15,2013-07-09 20:30:00,
2013-07-09 16:40:00,84.8,72.2,30.08,South,190,3.0,6.0,66,0.00,,,0.00,Wunderground v.1.15,2013-07-09 20:40:00,
2013-07-09 16:50:00,84.2,72.5,30.08,SSW,201,3.0,3.0,68,0.00,,,0.00,Wunderground v.1.15,2013-07-09 20:50:00,
2013-07-09 17:00:00,83.9,72.6,30.08,SE,138,3.0,3.0,69,0.00,,,0.00,Wunderground v.1.15,2013-07-09 21:00:00,
2013-07-09 17:05:00,84.1,73.3,30.08,South,181,3.0,3.0,70,0.00,,,0.00,Wunderground v.1.15,2013-07-09 21:05:00,
2013-07-09 17:15:00,83.9,73.9,30.07,SSE,165,4.0,4.0,72,0.00,,,0.00,Wunderground v.1.15,2013-07-09 21:15:00,
2013-07-09 17:25:00,84.0,73.6,30.07,SE,124,3.0,3.0,71,0.00,,,0.00,Wunderground v.1.15,2013-07-09 21:25:00,
2013-07-09 17:35:00,84.6,73.7,30.06,East,96,2.0,6.0,70,0.00,,,0.00,Wunderground v.1.15,2013-07-09 21:35:00,
2013-07-09 17:45:00,84.5,73.6,30.07,SSE,151,3.0,4.0,70,0.00,,,0.00,Wunderground v.1.15,2013-07-09 21:45:00,
2013-07-09 17:50:00,84.1,73.7,30.06,South,174,4.0,4.0,71,0.00,,,0.00,Wunderground v.1.15,2013-07-09 21:50:00,
2013-07-09 18:00:00,83.5,73.1,30.07,SSE,164,4.0,4.0,71,0.00,,,0.00,Wunderground v.1.15,2013-07-09 22:00:00,
2013-07-09 18:05:00,83.5,74.3,30.07,SSE,159,3.0,4.0,74,0.00,,,0.00,Wunderground v.1.15,2013-07-09 22:05:00,
2013-07-09 18:15:00,83.5,74.3,30.06,South,174,3.0,3.0,74,0.00,,,0.00,Wunderground v.1.15,2013-07-09 22:15:00,
2013-07-09 18:20:00,83.6,74.4,30.06,SSE,153,3.0,3.0,74,0.00,,,0.00,Wunderground v.1.15,2013-07-09 22:20:00,
2013-07-09 18:30:00,83.4,73.8,30.06,South,185,3.0,3.0,73,0.00,,,0.00,Wunderground v.1.15,2013-07-09 22:30:00,
2013-07-09 18:35:00,83.7,74.5,30.07,SSW,194,2.0,3.0,74,0.00,,,0.00,Wunderground v.1.15,2013-07-09 22:35:00,
2013-07-09 18:45:00,83.7,73.7,30.07,ESE,106,3.0,3.0,72,0.00,,,0.00,Wunderground v.1.15,2013-07-09 22:45:00,
2013-07-09 18:55:00,83.1,73.5,30.07,ESE,117,3.0,9.0,73,0.00,,,0.00,Wunderground v.1.15,2013-07-09 22:55:00,
2013-07-09 19:00:00,82.8,73.7,30.07,South,175,4.0,4.0,74,0.00,,,0.00,Wunderground v.1.15,2013-07-09 23:00:00,
2013-07-09 19:05:00,82.6,74.3,30.07,SE,129,3.0,4.0,76,0.00,,,0.00,Wunderground v.1.15,2013-07-09 23:05:00,
2013-07-09 19:15:00,82.2,74.3,30.07,ESE,118,3.0,3.0,77,0.00,,,0.00,Wunderground v.1.15,2013-07-09 23:15:00,
2013-07-09 19:20:00,81.9,74.4,30.07,East,84,3.0,3.0,78,0.00,,,0.00,Wunderground v.1.15,2013-07-09 23:20:00,
2013-07-09 19:30:00,81.6,73.7,30.07,SE,142,2.0,2.0,77,0.00,,,0.00,Wunderground v.1.15,2013-07-09 23:30:00,
2013-07-09 19:35:00,81.5,74.0,30.08,SSE,163,2.0,2.0,78,0.00,,,0.00,Wunderground v.1.15,2013-07-09 23:35:00,
2013-07-09 19:45:00,81.2,73.7,30.08,ESE,113,3.0,3.0,78,0.00,,,0.00,Wunderground v.1.15,2013-07-09 23:45:00,
2013-07-09 19:55:00,81.0,73.5,30.08,SSE,161,3.0,3.0,78,0.00,,,0.00,Wunderground v.1.15,2013-07-09 23:55:00,
2013-07-09 20:05:00,80.8,73.7,30.08,SSE,149,3.0,3.0,79,0.00,,,0.00,Wunderground v.1.15,2013-07-10 00:05:00,
2013-07-09 20:10:00,80.7,74.0,30.08,SSE,168,3.0,3.0,80,0.00,,,0.00,Wunderground v.1.15,2013-07-10 00:10:00,
2013-07-09 20:20:00,80.6,73.9,30.08,SW,227,2.0,4.0,80,0.00,,,0.00,Wunderground v.1.15,2013-07-10 00:20:00,
2013-07-09 20:30:00,80.5,73.8,30.08,SSE,167,2.0,2.0,80,0.00,,,0.00,Wunderground v.1.15,2013-07-10 00:30:00,
2013-07-09 20:40:00,80.4,73.7,30.08,SE,138,1.0,1.0,80,0.00,,,0.00,Wunderground v.1.15,2013-07-10 00:40:00,
2013-07-09 20:45:00,80.3,73.9,30.08,SSE,166,2.0,4.0,81,0.00,,,0.00,Wunderground v.1.15,2013-07-10 00:45:00,
2013-07-09 20:55:00,80.2,73.8,30.08,South,171,2.0,3.0,81,0.00,,,0.00,Wunderground v.1.15,2013-07-10 00:55:00,
2013-07-09 21:00:00,80.1,73.7,30.08,SSE,165,2.0,2.0,81,0.00,,,0.00,Wunderground v.1.15,2013-07-10 01:00:00,
2013-07-09 21:10:00,80.0,73.6,30.09,SE,125,2.0,2.0,81,0.00,,,0.00,Wunderground v.1.15,2013-07-10 01:10:00,
2013-07-09 21:15:00,80.0,74.0,30.09,South,170,1.0,4.0,82,0.00,,,0.00,Wunderground v.1.15,2013-07-10 01:15:00,
2013-07-09 21:25:00,79.9,73.9,30.09,SSE,167,1.0,2.0,82,0.00,,,0.00,Wunderground v.1.15,2013-07-10 01:25:00,
2013-07-09 21:35:00,79.8,73.8,30.09,South,175,1.0,1.0,82,0.00,,,0.00,Wunderground v.1.15,2013-07-10 01:35:00,
2013-07-09 21:45:00,79.8,73.8,30.09,South,171,1.0,1.0,82,0.00,,,0.00,Wunderground v.1.15,2013-07-10 01:45:00,
2013-07-09 21:55:00,79.7,73.7,30.09,SE,140,1.0,2.0,82,0.00,,,0.00,Wunderground v.1.15,2013-07-10 01:55:00,
2013-07-09 22:05:00,79.6,73.6,30.09,SSE,150,0.0,1.0,82,0.00,,,0.00,Wunderground v.1.15,2013-07-10 02:05:00,
2013-07-09 22:15:00,79.5,73.5,30.09,SSE,150,0.0,0.0,82,0.00,,,0.00,Wunderground v.1.15,2013-07-10 02:15:00,
2013-07-09 22:25:00,79.4,73.8,30.09,SSW,202,1.0,1.0,83,0.00,,,0.00,Wunderground v.1.15,2013-07-10 02:25:00,
2013-07-09 22:35:00,79.3,73.7,30.09,SE,140,1.0,1.0,83,0.00,,,0.00,Wunderground v.1.15,2013-07-10 02:35:00,
2013-07-09 22:40:00,79.3,74.0,30.09,SE,140,0.0,0.0,84,0.00,,,0.00,Wunderground v.1.15,2013-07-10 02:40:00,
2013-07-09 22:50:00,79.2,73.9,30.09,SE,140,0.0,0.0,84,0.00,,,0.00,Wunderground v.1.15,2013-07-10 02:50:00,
2013-07-09 22:55:00,79.1,73.8,30.10,SE,140,0.0,0.0,84,0.00,,,0.00,Wunderground v.1.15,2013-07-10 02:55:00,
2013-07-09 23:05:00,78.9,73.7,30.10,SE,140,0.0,1.0,84,0.00,,,0.00,Wunderground v.1.15,2013-07-10 03:05:00,
2013-07-09 23:10:00,78.8,73.6,30.10,SE,140,0.0,0.0,84,0.00,,,0.00,Wunderground v.1.15,2013-07-10 03:10:00,
2013-07-09 23:20:00,78.6,73.7,30.10,SE,140,0.0,1.0,85,0.00,,,0.00,Wunderground v.1.15,2013-07-10 03:20:00,
2013-07-09 23:30:00,78.5,73.6,30.10,SE,140,0.0,0.0,85,0.00,,,0.00,Wunderground v.1.15,2013-07-10 03:30:00,
2013-07-09 23:40:00,78.4,73.5,30.10,SE,140,0.0,0.0,85,0.00,,,0.00,Wunderground v.1.15,2013-07-10 03:40:00,
2013-07-09 23:50:00,78.2,73.7,30.10,SE,140,0.0,0.0,86,0.00,,,0.00,Wunderground v.1.15,2013-07-10 03:50:00,
2013-07-09 23:55:00,78.2,73.7,30.10,SE,140,0.0,0.0,86,0.00,,,0.00,Wunderground v.1.15,2013-07-10 03:55:00,